{"data":{"norad_id":51794,"intl_designator":"2022-017AC","name":"STARLINK-3573","alt_names":[],"object_type":"PAYLOAD","status":"ACTIVE","operator":null,"country":"US","launch_date":"2022-02-25","launch_site_code":"AFWTR","launch_vehicle":null,"mission":null,"orbit_class":"UNKNOWN","rcs_meters":null,"size_class":null,"mass_kg":null,"dimensions":null,"purposes":["comms"],"wikipedia_slug":null,"has_3d_model":false,"image_url":null,"decayed_at":null,"tle_current":{"epoch":"2026-07-19T22:30:37.652256Z","epoch_age_seconds":5457600,"freshness":"OLD","line1":"1 51794U 22017AC  26200.93793579  .05934423  12337-4  42018-3 0  9998","line2":"2 51794  53.2005  77.7961 0012185 267.6456  92.3197 16.39936800244414","mean_motion":16.399368,"eccentricity":0.0012185,"inclination_deg":53.2005,"raan_deg":77.7961,"arg_perigee_deg":267.6456,"mean_anomaly_deg":92.3197,"bstar":0.00042018,"rev_number":24441,"period_min":87.80826187936,"perigee_km":157.99663719991,"apogee_km":173.94462749994,"semimajor_km":6544.1076323499,"source":"CELESTRAK","updated_at":"2026-07-20T09:00:41.466604Z"}}}